Location: Gollag?dem
(16.8053°N, 80.8024°E)
Time: 13:58:49
(UTC+00:00)

NOSS 3-2 (C) - Pass Details

Date: 13 August 2020
Orbit: 793 x 1419 km, 63.4° (Epoch: 21 September)

Event Time Altitude Azimuth Distance (km) Brightness Sun altitude
Rises 14:07:16 0° 196° (SSW) 3,287 6.2 -15.5°
Reaches altitude 10° 14:09:41 10° 193° (SSW) 2,349 5.4 -16.0°
Maximum altitude 14:14:55 62° 113° (ESE) 904 3.0 -17.2°
Drops below altitude 10° 14:20:26 10° 33° (NNE) 2,477 5.5 -18.4°
Sets 14:23:02 0° 30° (NNE) 3,481 6.3 -19.0°
